TERRA SAR X

导读

TERRA SAR-X是德国宇航中心与欧洲空客联合研制的首颗商用高分辨率X波段合成孔径雷达卫星,于2007年6月15日在哈萨克斯坦拜科努尔发射场成功入轨,运行于514公里近极太阳同步轨道。它可不受天气、昼夜条件限制,获取最高1米分辨率雷达影像,在地形测绘、灾害监测、资源调查等科研与商业领域发挥重要价值,2010年与伴星TanDEM-X组网实现全球高精度数字高程模型采集。

Basic Information
目录编号:
31698
目录名称:
TERRA SAR X
国际标识:
2007-026A
轨道中心:
EARTH
卫星名称:
TERRA SAR X
卫星全名:
--
卫星状态:
在轨 (已飞行6942 天)
发射日期:
2007-06-15 UTC
国别 :
德国 (DE)
星等 :
--
Orbit Information
数据来源 国际轨道数据 AOE轨道数据
星历时间 2026-06-15T21:04:50+0800
1天前
查看轨道信息
2026-06-15T07:00:00+0800
2天前
查看轨道信息
半长轴 6886.549km 6886.546km
偏心率 0.0001604 0.0002257
轨道倾角 97.445° 97.445°
近地点辐角 89.177° 94.261°
升交点赤经 174.274° 173.698°
平近点角 270.965° 299.386°
近地点 507.307km 506.854km
远地点 509.517km 509.964km
周期 94.790分钟 94.790分钟
每日圈数 15.191489 15.1915
Detailed Information
使用方式:
暂无
2D Orbit Map
3D Orbit Map
Orbit Altitude Analysis Chart
Orbit Inclination Analysis Chart
Orbit Comprehensive Analysis Chart
View Comprehensive Chart